QPF
0.00 0.00 0.00 0.00 0.00 0.00 0.00 0.00 0.00 0.00 0.00 0.00 0.00 0.00 0.00 0.00 0.00 0.00 0.00 0.00 0.00 0.00 0.00 0.00 0.00 0.00 0.00 0.00 0.01 0.01 0.01 0.01 0.01 0.01 0.02 0.02 0.04 0.05 0.04 0.03 0.03 0.03 0.04 0.05
0.00 0.00 0.00 0.00 0.00 0.00 0.00 0.00 0.00 0.00 0.00 0.00 0.01 0.01 0.01 0.01 0.01 0.00 0.00 0.00 0.00 0.00 0.00 0.00 0.00 0.00 0.00 0.00 0.00 0.01 0.01 0.00 0.01 0.01 0.02 0.01 0.02 0.04 0.03 0.03 0.04 0.05 0.06 0.08
0.00 0.00 0.00 0.00 0.00 0.00 0.00 0.00 0.00 0.00 0.00 0.01 0.01 0.01 0.01 0.01 0.01 0.00 0.00 0.00 0.00 0.00 0.00 0.00 0.00 0.00 0.00 0.00 0.00 0.00 0.00 0.00 0.00 0.00 0.01 0.01 0.01 0.02 0.03 0.04 0.05 0.05 0.06 0.09
0.00 0.00 0.00 0.00 0.00 0.00 0.00 0.00 0.00 0.00 0.00 0.01 0.01 0.01 0.01 0.01 0.01 0.01 0.02 0.01 0.01 0.00 0.00 0.00 0.00 0.00 0.00 0.00 0.00 0.00 0.00 0.00 0.01 0.01 0.01 0.01 0.01 0.02 0.02 0.03 0.03 0.04 0.07 0.08
0.00 0.00 0.00 0.00 0.00 0.00 0.00 0.00 0.00 0.00 0.00 0.00 0.01 0.01 0.02 0.01 0.03 0.02 0.02 0.01 0.01 0.01 0.00 0.00 0.00 0.00 0.00 0.00 0.00 0.00 0.01 0.01 0.02 0.02 0.01 0.01 0.01 0.01 0.02 0.01 0.02 0.03 0.04 0.05
0.00 0.00 0.00 0.00 0.00 0.00 0.00 0.00 0.00 0.00 0.00 0.00 0.01 0.02 0.01 0.00 0.01 0.02 0.03 0.02 0.01 0.01 0.00 0.00 0.00 0.00 0.00 0.00 0.00 0.00 0.00 0.01 0.02 0.02 0.02 0.02 0.00 0.01 0.02 0.01 0.01 0.01 0.02 0.03
0.00 0.00 0.00 0.00 0.00 0.00 0.00 0.00 0.00 0.00 0.00 0.01 0.00 0.01 0.01 0.00 0.00 0.00 0.01 0.01 0.00 0.00 0.00 0.00 0.00 0.00 0.00 0.00 0.00 0.00 0.00 0.00 0.01 0.02 0.01 0.01 0.01 0.01 0.01 0.02 0.02 0.02 0.03 0.03
0.00 0.00 0.00 0.00 0.00 0.00 0.00 0.00 0.00 0.00 0.00 0.00 0.00 0.01 0.01 0.00 0.00 0.00 0.00 0.00 0.00 0.00 0.00 0.01 0.01 0.00 0.00 0.00 0.00 0.00 0.00 0.01 0.01 0.02 0.01 0.02 0.02 0.02 0.01 0.03 0.03 0.03 0.03 0.03
0.00 0.00 0.00 0.00 0.00 0.00 0.00 0.00 0.00 0.00 0.00 0.00 0.00 0.00 0.01 0.00 0.00 0.00 0.00 0.01 0.00 0.01 0.02 0.03 0.01 0.01 0.01 0.00 0.00 0.00 0.01 0.01 0.01 0.01 0.01 0.02 0.02 0.02 0.02 0.04 0.04 0.05 0.04 0.04
0.00 0.00 0.00 0.00 0.00 0.00 0.00 0.00 0.00 0.00 0.00 0.00 0.00 0.00 0.01 0.01 0.01 0.00 0.00 0.01 0.01 0.03 0.06 0.06 0.02 0.01 0.01 0.01 0.01 0.01 0.01 0.01 0.00 0.01 0.00 0.01 0.01 0.01 0.01 0.02 0.02 0.03 0.03 0.03
0.00 0.00 0.00 0.00 0.00 0.00 0.00 0.00 0.00 0.00 0.00 0.00 0.00 0.00 0.00 0.01 0.01 0.01 0.00 0.02 0.07 0.08 0.08 0.07 0.04 0.03 0.02 0.02 0.01 0.01 0.01 0.00 0.00 0.00 0.00 0.00 0.00 0.01 0.01 0.01 0.01 0.01 0.01 0.01
0.00 0.00 0.00 0.00 0.00 0.00 0.00 0.00 0.00 0.00 0.00 0.00 0.00 0.00 0.00 0.02 0.02 0.01 0.00 0.01 0.03 0.06 0.05 0.05 0.06 0.08 0.03 0.02 0.01 0.01 0.01 0.00 0.00 0.00 0.00 0.00 0.00 0.00 0.01 0.01 0.01 0.01 0.01 0.01
0.00 0.00 0.00 0.00 0.00 0.00 0.00 0.00 0.00 0.00 0.00 0.00 0.00 0.00 0.00 0.00 0.00 0.01 0.01 0.01 0.02 0.03 0.03 0.08 0.11 0.08 0.04 0.02 0.01 0.01 0.01 0.01 0.01 0.00 0.00 0.00 0.00 0.00 0.01 0.01 0.01 0.02 0.02 0.02
0.00 0.00 0.00 0.00 0.00 0.00 0.00 0.00 0.00 0.00 0.00 0.00 0.00 0.00 0.00 0.00 0.00 0.01 0.01 0.01 0.01 0.02 0.03 0.04 0.08 0.06 0.02 0.02 0.02 0.01 0.01 0.01 0.01 0.01 0.00 0.00 0.00 0.00 0.01 0.01 0.01 0.02 0.02 0.01
0.00 0.00 0.00 0.00 0.00 0.00 0.00 0.00 0.00 0.00 0.00 0.00 0.00 0.00 0.00 0.00 0.01 0.01 0.01 0.01 0.01 0.03 0.06 0.10 0.11 0.09 0.05 0.04 0.03 0.02 0.02 0.01 0.01 0.01 0.01 0.01 0.02 0.02 0.03 0.03 0.03 0.03 0.03 0.03
0.00 0.00 0.00 0.00 0.00 0.00 0.00 0.00 0.00 0.00 0.00 0.00 0.00 0.00 0.00 0.00 0.01 0.01 0.01 0.01 0.02 0.04 0.04 0.05 0.05 0.07 0.07 0.08 0.05 0.03 0.02 0.02 0.02 0.02 0.02 0.03 0.04 0.06 0.07 0.08 0.07 0.06 0.06 0.04
0.00 0.00 0.00 0.00 0.00 0.00 0.00 0.00 0.00 0.00 0.00 0.00 0.00 0.00 0.00 0.00 0.00 0.00 0.01 0.03 0.07 0.05 0.02 0.02 0.02 0.02 0.03 0.04 0.04 0.03 0.03 0.03 0.03 0.04 0.06 0.08 0.08 0.09 0.12 0.14 0.11 0.10 0.07 0.03
0.00 0.00 0.00 0.00 0.00 0.00 0.00 0.00 0.00 0.00 0.00 0.00 0.00 0.00 0.00 0.00 0.00 0.00 0.01 0.01 0.02 0.01 0.00 0.01 0.02 0.03 0.03 0.04 0.07 0.05 0.04 0.04 0.04 0.06 0.08 0.10 0.11 0.14 0.16 0.13 0.10 0.07 0.05 0.03
0.00 0.00 0.00 0.00 0.00 0.00 0.00 0.00 0.00 0.00 0.00 0.00 0.00 0.00 0.00 0.00 0.00 0.01 0.04 0.10 0.05 0.02 0.01 0.01 0.02 0.04 0.06 0.05 0.05 0.04 0.04 0.05 0.05 0.06 0.08 0.10 0.12 0.15 0.13 0.10 0.06 0.04 0.05 0.05
0.01 0.01 0.01 0.00 0.00 0.00 0.00 0.00 0.00 0.00 0.00 0.00 0.00 0.00 0.00 0.00 0.00 0.01 0.02 0.06 0.07 0.05 0.03 0.02 0.01 0.02 0.05 0.06 0.06 0.05 0.05 0.06 0.06 0.06 0.08 0.10 0.11 0.11 0.08 0.06 0.05 0.05 0.05 0.05
0.00 0.01 0.01 0.00 0.00 0.00 0.00 0.00 0.00 0.00 0.01 0.00 0.01 0.01 0.00 0.00 0.01 0.01 0.02 0.02 0.03 0.03 0.03 0.03 0.02 0.02 0.03 0.03 0.05 0.06 0.05 0.05 0.06 0.07 0.09 0.09 0.10 0.09 0.07 0.06 0.05 0.05 0.05 0.07
0.00 0.00 0.01 0.01 0.01 0.01 0.00 0.00 0.01 0.02 0.01 0.01 0.02 0.02 0.01 0.01 0.01 0.01 0.02 0.03 0.03 0.04 0.04 0.04 0.04 0.03 0.04 0.05 0.05 0.05 0.05 0.05 0.06 0.08 0.08 0.08 0.08 0.08 0.08 0.07 0.05 0.06 0.06 0.07
0.01 0.01 0.01 0.01 0.01 0.01 0.01 0.01 0.01 0.02 0.03 0.03 0.03 0.03 0.03 0.03 0.03 0.03 0.04 0.04 0.04 0.04 0.03 0.03 0.03 0.04 0.05 0.06 0.07 0.07 0.08 0.10 0.13 0.14 0.14 0.11 0.08 0.06 0.06 0.06 0.05 0.05 0.07 0.07
0.01 0.01 0.02 0.02 0.02 0.03 0.03 0.03 0.04 0.03 0.03 0.03 0.03 0.04 0.04 0.04 0.04 0.04 0.06 0.07 0.07 0.06 0.05 0.05 0.05 0.05 0.06 0.07 0.07 0.08 0.08 0.10 0.14 0.15 0.17 0.18 0.15 0.12 0.12 0.11 0.08 0.06 0.05 0.05
0.02 0.02 0.03 0.04 0.06 0.06 0.05 0.06 0.07 0.07 0.05 0.03 0.02 0.03 0.04 0.04 0.05 0.05 0.06 0.08 0.09 0.10 0.10 0.09 0.08 0.09 0.09 0.09 0.08 0.08 0.09 0.10 0.14 0.16 0.18 0.17 0.15 0.13 0.10 0.08 0.06 0.05 0.04 0.03
0.03 0.05 0.06 0.08 0.10 0.11 0.11 0.11 0.11 0.12 0.09 0.07 0.05 0.04 0.05 0.05 0.04 0.06 0.06 0.07 0.08 0.09 0.08 0.07 0.06 0.06 0.06 0.06 0.08 0.12 0.15 0.15 0.14 0.14 0.13 0.12 0.09 0.09 0.07 0.06 0.04 0.03 0.03 0.02
MSLP
1009.21 1010.13 1010.82 1011.25 1011.45 1011.47 1011.39 1011.28 1011.18 1011.12 1011.09 1011.07 1011.04 1010.99 1010.90 1010.82 1010.76 1010.78 1010.89 1011.10 1011.41 1011.78 1012.18 1012.55 1012.86 1013.10 1013.28 1013.42 1013.57 1013.77 1014.03 1014.36 1014.75 1015.17 1015.58 1015.93 1016.20 1016.37 1016.45 1016.48 1016.48 1016.50 1016.57 1016.69
1010.21 1010.89 1011.31 1011.50 1011.50 1011.41 1011.30 1011.25 1011.25 1011.32 1011.40 1011.45 1011.42 1011.29 1011.09 1010.85 1010.64 1010.53 1010.57 1010.77 1011.12 1011.58 1012.09 1012.56 1012.96 1013.25 1013.43 1013.55 1013.65 1013.79 1014.02 1014.34 1014.75 1015.21 1015.66 1016.05 1016.34 1016.49 1016.53 1016.47 1016.37 1016.28 1016.24 1016.29
1010.90 1011.33 1011.50 1011.46 1011.32 1011.18 1011.12 1011.18 1011.36 1011.61 1011.83 1011.96 1011.93 1011.72 1011.37 1010.95 1010.55 1010.28 1010.20 1010.36 1010.74 1011.28 1011.90 1012.50 1013.00 1013.36 1013.57 1013.69 1013.76 1013.87 1014.06 1014.37 1014.79 1015.27 1015.75 1016.17 1016.47 1016.62 1016.61 1016.48 1016.29 1016.11 1015.98 1015.95
1011.26 1011.44 1011.39 1011.20 1010.99 1010.88 1010.95 1011.21 1011.62 1012.08 1012.48 1012.69 1012.66 1012.36 1011.84 1011.19 1010.57 1010.10 1009.88 1009.96 1010.33 1010.92 1011.64 1012.35 1012.95 1013.40 1013.66 1013.79 1013.85 1013.93 1014.09 1014.37 1014.79 1015.28 1015.79 1016.23 1016.55 1016.70 1016.67 1016.50 1016.26 1016.00 1015.81 1015.72
1011.30 1011.28 1011.07 1010.80 1010.62 1010.62 1010.89 1011.41 1012.09 1012.80 1013.37 1013.68 1013.63 1013.22 1012.51 1011.62 1010.75 1010.05 1009.65 1009.62 1009.95 1010.56 1011.34 1012.14 1012.84 1013.36 1013.67 1013.82 1013.87 1013.92 1014.05 1014.30 1014.69 1015.19 1015.71 1016.18 1016.53 1016.69 1016.68 1016.50 1016.24 1015.96 1015.72 1015.60
1011.11 1010.94 1010.65 1010.38 1010.29 1010.48 1011.00 1011.80 1012.77 1013.71 1014.46 1014.84 1014.77 1014.24 1013.34 1012.22 1011.09 1010.16 1009.56 1009.40 1009.65 1010.25 1011.06 1011.92 1012.68 1013.26 1013.61 1013.77 1013.81 1013.82 1013.91 1014.12 1014.49 1014.96 1015.49 1015.99 1016.37 1016.57 1016.59 1016.45 1016.20 1015.93 1015.69 1015.55
1010.80 1010.53 1010.22 1010.01 1010.06 1010.46 1011.24 1012.32 1013.54 1014.70 1015.59 1016.02 1015.92 1015.28 1014.20 1012.87 1011.53 1010.38 1009.61 1009.31 1009.48 1010.04 1010.85 1011.73 1012.53 1013.13 1013.50 1013.66 1013.68 1013.65 1013.69 1013.86 1014.18 1014.63 1015.15 1015.66 1016.07 1016.33 1016.40 1016.32 1016.12 1015.88 1015.66 1015.52
1010.47 1010.15 1009.85 1009.73 1009.93 1010.54 1011.54 1012.84 1014.26 1015.57 1016.54 1017.00 1016.85 1016.12 1014.92 1013.44 1011.93 1010.64 1009.74 1009.33 1009.43 1009.94 1010.72 1011.60 1012.40 1013.01 1013.38 1013.53 1013.52 1013.45 1013.44 1013.55 1013.82 1014.23 1014.73 1015.24 1015.68 1015.98 1016.11 1016.09 1015.96 1015.77 1015.59 1015.48
1010.20 1009.85 1009.58 1009.55 1009.88 1010.63 1011.78 1013.21 1014.73 1016.10 1017.09 1017.54 1017.35 1016.56 1015.29 1013.73 1012.16 1010.80 1009.84 1009.39 1009.44 1009.91 1010.67 1011.53 1012.31 1012.92 1013.27 1013.40 1013.36 1013.26 1013.20 1013.25 1013.47 1013.84 1014.30 1014.80 1015.24 1015.57 1015.75 1015.79 1015.72 1015.59 1015.46 1015.38
1010.03 1009.67 1009.43 1009.45 1009.85 1010.67 1011.86 1013.31 1014.81 1016.14 1017.08 1017.48 1017.25 1016.44 1015.17 1013.63 1012.09 1010.77 1009.84 1009.40 1009.45 1009.91 1010.65 1011.48 1012.24 1012.82 1013.16 1013.27 1013.22 1013.10 1013.01 1013.02 1013.19 1013.51 1013.93 1014.39 1014.82 1015.15 1015.36 1015.44 1015.41 1015.33 1015.25 1015.21
1009.94 1009.59 1009.37 1009.41 1009.81 1010.60 1011.72 1013.07 1014.44 1015.63 1016.45 1016.76 1016.50 1015.70 1014.50 1013.07 1011.66 1010.46 1009.65 1009.29 1009.38 1009.86 1010.58 1011.39 1012.12 1012.68 1013.01 1013.12 1013.08 1012.96 1012.86 1012.86 1012.99 1013.27 1013.64 1014.05 1014.45 1014.77 1014.97 1015.07 1015.08 1015.03 1014.99 1014.98
1009.95 1009.60 1009.38 1009.41 1009.75 1010.43 1011.39 1012.53 1013.68 1014.66 1015.30 1015.49 1015.19 1014.45 1013.36 1012.12 1010.90 1009.91 1009.26 1009.03 1009.20 1009.71 1010.42 1011.19 1011.89 1012.42 1012.75 1012.87 1012.86 1012.77 1012.70 1012.71 1012.84 1013.08 1013.41 1013.78 1014.13 1014.42 1014.61 1014.70 1014.73 1014.71 1014.70 1014.71
1010.03 1009.70 1009.49 1009.47 1009.72 1010.23 1010.96 1011.83 1012.69 1013.40 1013.82 1013.88 1013.55 1012.87 1011.94 1010.91 1009.94 1009.18 1008.73 1008.65 1008.90 1009.42 1010.11 1010.83 1011.49 1011.99 1012.31 1012.46 1012.49 1012.46 1012.45 1012.50 1012.65 1012.89 1013.20 1013.53 1013.84 1014.08 1014.25 1014.34 1014.38 1014.38 1014.40 1014.44
1010.19 1009.90 1009.70 1009.63 1009.76 1010.08 1010.55 1011.11 1011.66 1012.07 1012.26 1012.18 1011.82 1011.21 1010.44 1009.63 1008.92 1008.39 1008.14 1008.18 1008.50 1009.02 1009.66 1010.32 1010.90 1011.36 1011.67 1011.85 1011.93 1011.98 1012.04 1012.16 1012.35 1012.61 1012.91 1013.22 1013.50 1013.73 1013.88 1013.97 1014.01 1014.05 1014.09 1014.17
1010.47 1010.23 1010.03 1009.93 1009.93 1010.06 1010.27 1010.53 1010.75 1010.87 1010.84 1010.62 1010.22 1009.68 1009.06 1008.46 1007.98 1007.67 1007.58 1007.72 1008.06 1008.55 1009.11 1009.66 1010.15 1010.55 1010.83 1011.02 1011.16 1011.28 1011.43 1011.63 1011.89 1012.19 1012.51 1012.82 1013.09 1013.30 1013.45 1013.55 1013.63 1013.69 1013.78 1013.89
1010.89 1010.70 1010.52 1010.37 1010.27 1010.21 1010.18 1010.15 1010.08 1009.93 1009.68 1009.33 1008.90 1008.41 1007.93 1007.52 1007.22 1007.09 1007.12 1007.33 1007.66 1008.08 1008.53 1008.96 1009.33 1009.64 1009.87 1010.06 1010.24 1010.43 1010.66 1010.94 1011.26 1011.61 1011.96 1012.28 1012.56 1012.78 1012.95 1013.08 1013.19 1013.31 1013.44 1013.59
1011.45 1011.30 1011.13 1010.94 1010.73 1010.51 1010.26 1009.97 1009.63 1009.25 1008.81 1008.35 1007.89 1007.45 1007.08 1006.82 1006.68 1006.68 1006.81 1007.04 1007.34 1007.68 1008.00 1008.30 1008.54 1008.74 1008.92 1009.09 1009.28 1009.52 1009.81 1010.15 1010.53 1010.92 1011.30 1011.64 1011.94 1012.19 1012.39 1012.56 1012.72 1012.88 1013.06 1013.26
1012.13 1011.99 1011.81 1011.56 1011.25 1010.86 1010.41 1009.90 1009.34 1008.75 1008.16 1007.61 1007.12 1006.72 1006.45 1006.32 1006.31 1006.42 1006.62 1006.87 1007.14 1007.40 1007.61 1007.78 1007.91 1008.01 1008.12 1008.26 1008.44 1008.70 1009.02 1009.40 1009.81 1010.22 1010.62 1010.98 1011.30 1011.56 1011.80 1012.01 1012.22 1012.44 1012.67 1012.91
1012.88 1012.71 1012.47 1012.14 1011.71 1011.16 1010.53 1009.81 1009.06 1008.30 1007.58 1006.96 1006.46 1006.11 1005.93 1005.91 1006.02 1006.24 1006.51 1006.80 1007.06 1007.27 1007.41 1007.49 1007.53 1007.56 1007.60 1007.70 1007.87 1008.12 1008.44 1008.82 1009.23 1009.64 1010.04 1010.40 1010.72 1011.00 1011.25 1011.50 1011.75 1012.01 1012.28 1012.55
1013.61 1013.37 1013.04 1012.59 1012.01 1011.30 1010.49 1009.60 1008.67 1007.78 1006.97 1006.29 1005.79 1005.50 1005.40 1005.49 1005.73 1006.05 1006.42 1006.77 1007.06 1007.27 1007.39 1007.44 1007.44 1007.43 1007.44 1007.51 1007.65 1007.87 1008.17 1008.53 1008.91 1009.29 1009.65 1009.99 1010.29 1010.57 1010.83 1011.09 1011.36 1011.65 1011.94 1012.23
1014.24 1013.90 1013.44 1012.85 1012.11 1011.24 1010.25 1009.20 1008.14 1007.14 1006.26 1005.56 1005.08 1004.84 1004.83 1005.03 1005.39 1005.83 1006.31 1006.75 1007.12 1007.38 1007.54 1007.61 1007.63 1007.62 1007.62 1007.68 1007.80 1008.00 1008.25 1008.56 1008.89 1009.22 1009.53 1009.82 1010.08 1010.33 1010.58 1010.84 1011.12 1011.41 1011.71 1012.00
1014.72 1014.25 1013.65 1012.90 1012.01 1010.98 1009.86 1008.68 1007.53 1006.45 1005.54 1004.83 1004.38 1004.19 1004.27 1004.57 1005.03 1005.60 1006.18 1006.74 1007.21 1007.57 1007.81 1007.95 1008.01 1008.05 1008.08 1008.14 1008.26 1008.42 1008.64 1008.89 1009.15 1009.42 1009.66 1009.89 1010.11 1010.32 1010.54 1010.78 1011.04 1011.33 1011.62 1011.90
1015.01 1014.41 1013.68 1012.80 1011.77 1010.63 1009.41 1008.16 1006.95 1005.85 1004.92 1004.24 1003.82 1003.69 1003.83 1004.21 1004.76 1005.41 1006.09 1006.74 1007.31 1007.78 1008.12 1008.35 1008.50 1008.60 1008.68 1008.77 1008.89 1009.04 1009.22 1009.42 1009.62 1009.81 1009.99 1010.16 1010.33 1010.50 1010.69 1010.90 1011.14 1011.40 1011.68 1011.95
1015.13 1014.43 1013.59 1012.61 1011.51 1010.31 1009.05 1007.78 1006.58 1005.50 1004.61 1003.96 1003.58 1003.49 1003.67 1004.08 1004.67 1005.37 1006.10 1006.81 1007.45 1007.99 1008.42 1008.74 1008.98 1009.15 1009.29 1009.42 1009.55 1009.69 1009.85 1010.00 1010.15 1010.29 1010.42 1010.54 1010.66 1010.80 1010.96 1011.15 1011.37 1011.61 1011.86 1012.11
1015.09 1014.33 1013.44 1012.44 1011.32 1010.14 1008.91 1007.70 1006.57 1005.56 1004.74 1004.15 1003.81 1003.74 1003.92 1004.33 1004.89 1005.56 1006.28 1006.99 1007.64 1008.21 1008.68 1009.06 1009.36 1009.59 1009.78 1009.95 1010.10 1010.25 1010.39 1010.51 1010.63 1010.73 1010.83 1010.92 1011.01 1011.13 1011.27 1011.45 1011.65 1011.88 1012.11 1012.34
1014.94 1014.17 1013.29 1012.32 1011.27 1010.18 1009.07 1007.99 1006.98 1006.10 1005.39 1004.87 1004.58 1004.51 1004.66 1004.99 1005.48 1006.05 1006.68 1007.30 1007.90 1008.43 1008.89 1009.28 1009.60 1009.86 1010.09 1010.28 1010.45 1010.60 1010.74 1010.86 1010.96 1011.05 1011.13 1011.21 1011.29 1011.40 1011.54 1011.71 1011.91 1012.13 1012.35 1012.57
Thickness
5847 5828 5815 5825 5833 5833 5830 5825 5823 5835 5852 5842 5832 5830 5834 5839 5836 5830 5826 5823 5820 5820 5821 5820 5817 5813 5808 5803 5798 5794 5789 5785 5781 5776 5771 5767 5764 5764 5764 5763 5763 5762 5760 5759
5820 5815 5835 5846 5847 5842 5835 5825 5825 5838 5852 5842 5830 5829 5837 5840 5839 5837 5832 5828 5825 5821 5820 5819 5817 5814 5809 5805 5801 5797 5792 5788 5784 5780 5776 5772 5769 5767 5766 5765 5764 5763 5761 5759
5809 5826 5848 5845 5838 5833 5832 5827 5828 5830 5838 5840 5828 5814 5823 5834 5839 5840 5840 5837 5833 5829 5823 5821 5818 5815 5812 5807 5804 5801 5796 5792 5787 5783 5778 5774 5770 5767 5765 5764 5763 5763 5762 5761
5817 5836 5841 5837 5835 5836 5820 5843 5843 5837 5818 5802 5815 5784 5808 5822 5826 5832 5836 5836 5836 5835 5830 5825 5822 5818 5815 5813 5810 5805 5799 5794 5790 5786 5780 5774 5768 5764 5764 5765 5764 5764 5763 5761
5812 5831 5831 5828 5837 5843 5835 5850 5845 5837 5819 5802 5806 5789 5797 5816 5814 5826 5836 5840 5841 5841 5837 5831 5828 5824 5821 5818 5813 5808 5802 5797 5793 5788 5783 5777 5772 5769 5767 5766 5764 5763 5763 5762
5820 5839 5840 5839 5849 5853 5850 5840 5829 5813 5798 5779 5797 5789 5789 5810 5823 5833 5839 5844 5844 5843 5841 5836 5833 5828 5823 5820 5815 5810 5804 5799 5795 5791 5786 5780 5775 5771 5767 5765 5763 5763 5763 5762
5803 5821 5839 5848 5835 5840 5835 5801 5773 5771 5759 5767 5797 5793 5798 5833 5845 5848 5846 5847 5847 5845 5842 5836 5831 5827 5823 5820 5817 5813 5806 5801 5798 5793 5788 5784 5779 5774 5770 5767 5765 5763 5761 5761
5776 5783 5822 5838 5831 5820 5821 5800 5766 5755 5753 5766 5790 5790 5816 5850 5858 5859 5857 5853 5849 5844 5842 5838 5835 5831 5827 5823 5818 5814 5808 5803 5799 5795 5790 5787 5782 5777 5774 5771 5768 5765 5763 5762
5771 5780 5823 5838 5844 5833 5815 5803 5800 5775 5769 5762 5773 5797 5825 5849 5850 5851 5850 5847 5844 5843 5842 5839 5836 5833 5829 5825 5821 5817 5811 5806 5802 5798 5793 5788 5784 5780 5777 5774 5771 5768 5766 5764
5786 5779 5805 5828 5837 5835 5828 5816 5785 5768 5752 5747 5766 5781 5794 5821 5831 5839 5841 5841 5842 5843 5840 5838 5837 5835 5831 5828 5824 5820 5814 5809 5805 5801 5796 5791 5787 5783 5780 5776 5772 5769 5767 5765
5787 5772 5786 5803 5806 5807 5813 5807 5788 5766 5763 5748 5748 5773 5823 5828 5835 5836 5839 5841 5841 5840 5838 5837 5838 5838 5833 5829 5824 5819 5814 5810 5806 5801 5797 5793 5788 5785 5781 5776 5773 5770 5768 5766
5780 5766 5761 5783 5811 5825 5817 5805 5786 5766 5762 5757 5753 5776 5837 5838 5841 5840 5838 5840 5841 5840 5839 5838 5835 5832 5828 5824 5821 5818 5814 5810 5807 5803 5798 5793 5789 5785 5780 5776 5774 5771 5767 5765
5775 5756 5743 5756 5777 5798 5801 5803 5794 5779 5764 5753 5751 5778 5831 5834 5834 5837 5836 5836 5837 5836 5835 5833 5831 5829 5826 5823 5820 5818 5815 5812 5808 5803 5797 5792 5788 5784 5780 5777 5774 5771 5767 5763
5777 5748 5742 5739 5753 5774 5783 5794 5796 5778 5757 5756 5766 5783 5809 5817 5821 5825 5829 5832 5832 5831 5830 5827 5824 5825 5823 5821 5820 5817 5814 5812 5808 5803 5797 5792 5788 5785 5780 5776 5773 5769 5766 5762
5757 5740 5748 5757 5772 5781 5783 5788 5793 5784 5777 5769 5777 5785 5799 5812 5817 5822 5826 5826 5825 5822 5822 5821 5819 5818 5819 5818 5816 5815 5813 5810 5807 5801 5796 5792 5788 5784 5780 5774 5769 5766 5762 5759
5736 5731 5738 5746 5765 5772 5774 5784 5788 5788 5787 5783 5785 5786 5807 5815 5818 5819 5821 5820 5817 5817 5817 5818 5817 5815 5816 5816 5814 5811 5808 5807 5804 5799 5794 5791 5786 5780 5775 5771 5766 5762 5759 5755
5719 5717 5714 5718 5742 5753 5747 5770 5777 5778 5783 5783 5774 5785 5803 5803 5809 5812 5816 5817 5816 5816 5816 5815 5815 5815 5816 5815 5813 5809 5808 5806 5800 5796 5792 5787 5781 5774 5770 5767 5762 5759 5756 5752
5713 5706 5698 5703 5720 5713 5741 5774 5779 5775 5778 5785 5786 5791 5797 5800 5806 5812 5816 5815 5815 5817 5815 5814 5814 5815 5815 5813 5811 5809 5806 5802 5797 5792 5787 5783 5778 5772 5765 5761 5758 5755 5752 5747
5712 5702 5691 5687 5693 5710 5741 5763 5769 5763 5762 5781 5781 5786 5790 5797 5799 5798 5807 5811 5813 5814 5814 5813 5812 5811 5810 5808 5807 5804 5799 5796 5792 5788 5783 5779 5775 5768 5762 5757 5754 5750 5746 5742
5701 5696 5685 5681 5684 5688 5721 5755 5770 5763 5746 5774 5777 5777 5781 5785 5770 5777 5796 5802 5805 5807 5808 5807 5807 5805 5802 5801 5799 5795 5791 5788 5785 5783 5779 5776 5771 5765 5758 5753 5749 5745 5741 5736
5675 5675 5672 5671 5673 5690 5723 5746 5756 5727 5732 5761 5767 5770 5773 5771 5774 5781 5789 5792 5794 5797 5798 5799 5798 5795 5794 5793 5790 5785 5782 5780 5780 5777 5773 5768 5764 5759 5753 5748 5744 5739 5734 5729
5659 5657 5659 5660 5662 5677 5718 5727 5721 5722 5741 5749 5757 5762 5764 5767 5771 5774 5777 5780 5782 5783 5785 5786 5785 5783 5784 5784 5781 5775 5771 5773 5772 5769 5764 5759 5755 5752 5746 5740 5735 5731 5726 5720
5654 5656 5656 5660 5669 5693 5707 5712 5721 5728 5731 5739 5746 5753 5757 5758 5759 5762 5765 5767 5770 5771 5772 5773 5772 5770 5770 5772 5771 5766 5764 5762 5760 5756 5751 5747 5744 5740 5737 5731 5726 5721 5716 5711
5651 5658 5655 5657 5672 5684 5695 5705 5713 5720 5724 5731 5738 5743 5746 5747 5749 5749 5752 5755 5757 5757 5758 5760 5758 5756 5756 5758 5758 5756 5755 5752 5749 5746 5740 5736 5732 5728 5723 5719 5714 5709 5705 5701
5640 5645 5642 5646 5659 5671 5681 5687 5695 5705 5714 5719 5725 5731 5733 5736 5738 5739 5738 5741 5744 5745 5747 5746 5745 5744 5745 5746 5745 5745 5743 5741 5738 5735 5730 5726 5721 5716 5710 5705 5701 5698 5694 5692
5631 5631 5631 5635 5647 5651 5660 5674 5683 5689 5698 5704 5710 5714 5719 5722 5724 5726 5726 5728 5730 5731 5733 5734 5733 5733 5734 5734 5734 5734 5733 5731 5726 5722 5719 5715 5710 5705 5698 5692 5686 5684 5682 5680